Content
SEND FEEDBACK

Daily
Averages
Monthly
Summary
United States of America

ROCKFISH, VIRGINIA


Home > North America > United States > Virginia
Elevation: 49 feet     Latitude: 37 48N     Longitude: 078 45W

WEATHER
 
SELECT A DAY
Number of Records: 205,465;   Date Range: 1/1/95 - 9/16/14
 
SHARE

PRINT THIS DATA

[ ← Previous Day ]
WEATHER ALMANAC - MARCH 21, 2014
[ Next Day → ]
[ °C ]   °F
Weather ElementAverageHighLow
Temperature45.2 °F59.4 °F (2:58 pm)34.9 °F (1:58 am)
Dewpoint32 °F37 °F (5:58 pm)26.4 °F (1:58 am)
Humidity62.6 %92 % (11:58 pm)33 % (2:58 pm)
Barometer30.07 in30.12 in (9:58 am)30.04 in (3:58 pm)
Wind Speed2.1 mph5.8 mph (11:58 am)
Weather ElementAverage
Visibility10 mi
Wind DirectionENE (59.1 °)

Weather ElementTotal
Precipitation---
Heating Degree Days17.9 (Base 65)
Averaged from 23 records on March 21, 2014
WEATHER CONDITIONS BREAKOUT
WIND DIRECTION BREAKOUT
WEATHER BY HOUR - MARCH 21, 2014
[ °C ]   °F
Local TimeTemperatureDewpointHumidityBarometerVisibilityWind DirectionWind SpeedGust SpeedPrecipitationEventsConditions
1:58 AM34.9 °F26.4 °F71 %30.05 in10.0 miCalmScattered Clouds
2:58 AM35.4 °F27.7 °F73 %30.05 in10.0 miCalmPartly Cloudy
3:58 AM35.1 °F26.6 °F71 %30.05 in10.0 miCalmOvercast
4:58 AM36.0 °F28.4 °F74 %30.06 in10.0 miCalmOvercast
5:58 AM35.4 °F27.9 °F74 %30.06 in10.0 miESE (120°)3.5 mphOvercast
6:58 AM36.9 °F30.0 °F76 %30.08 in10.0 miCalmOvercast
7:58 AM38.1 °F32.4 °F80 %30.10 in10.0 miNNW (330°)1.2 mphOvercast
8:58 AM40.8 °F33.4 °F75 %30.11 in10.0 miCalmOvercast
9:58 AM43.7 °F32.9 °F66 %30.12 in10.0 miCalmOvercast
10:58 AM47.7 °F31.8 °F54 %30.11 in10.0 miNW (320°)1.2 mphMostly Cloudy
11:58 AM50.0 °F28.4 °F43 %30.09 in10.0 miSE (130°)5.8 mphMostly Cloudy
12:58 PM54.3 °F29.7 °F39 %30.08 in10.0 miVariable2.3 mphPartly Cloudy
1:58 PM56.8 °F30.2 °F36 %30.07 in10.0 miVariable3.5 mphScattered Clouds
2:58 PM59.4 °F30.2 °F33 %30.06 in10.0 miVariable5.8 mphPartly Cloudy
3:58 PM58.6 °F31.1 °F35 %30.04 in10.0 miNNE (20°)5.8 mphClear
4:58 PM56.7 °F34.9 °F44 %30.04 in10.0 miVariable4.6 mphClear
5:58 PM54.7 °F37.0 °F51 %30.04 in10.0 miNE (40°)5.8 mphClear
6:58 PM52.3 °F36.3 °F54 %30.05 in10.0 miNorth (10°)3.5 mphClear
7:58 PM49.3 °F36.7 °F62 %30.06 in10.0 miNNE (20°)2.3 mphClear
8:58 PM45.0 °F36.1 °F71 %30.07 in10.0 miENE (60°)1.2 mphClear
9:58 PM41.5 °F35.8 °F80 %30.07 in10.0 miNNE (30°)1.2 mphClear
10:58 PM39.6 °F35.6 °F86 %30.06 in10.0 miWest (280°)1.2 mphClear
11:58 PM37.6 °F35.4 °F92 %30.05 in10.0 miCalmClear
Hourly data recorded from KDAA, located miles away from Rockfish, Virginia







STORIES FROM OUR PARTNERS